Location: Bosmont
(49.7318°N, 3.8587°E)
Time: 23:48:03
(UTC+00:00)

Cosmos 2333 Rocket - Pass Details

Date: 08 February 2023
Orbit: 837 x 864 km, 70.8° (Epoch: 01 April)

Event Time Altitude Azimuth Distance (km) Brightness Sun altitude
Rises 17:10:16 0° 180° (S) 3,378 5.6 -3.7°
Reaches altitude 10° 17:12:52 10° 171° (S) 2,451 4.8 -4.1°
Maximum altitude 17:17:56 36° 107° (ESE) 1,315 2.8 -4.9°
Drops below altitude 10° 17:23:04 10° 43° (NE) 2,481 4.1 -5.7°
Sets 17:25:42 0° 35° (NE) 3,426 4.9 -6.1°
